Home   Weather   Florianópolis   Past weeks

Flag for Brazil Past Weather in Florianópolis, Santa Catarina, Brazil — Yesterday and Last 2 Weeks

Now
73 °F

Sunny.


Feels Like: 77 °F
Forecast: 62 / 74 °F
Wind: 10 mph from Southeast

Location: Florianopolis Aeroporto

Current Time: Apr 23, 2017 at 4:42:45 pm

Latest Report: Apr 23, 2017 at 4:00 pm


Visibility: 10 mi

Pressure: 30.09 "Hg

Humidity: 57%

Dew Point: 57 °F

Location of FlorianópolisLocation

Past Weather in Florianópolis — Graph

°F

Florianópolis Temperature Yesterday

Maximum temperature yesterday: 77 °F (at 1:00 pm)
Minimum temperature yesterday: 66 °F (at 11:00 pm)
Average temperature yesterday: 71 °F

High & Low Weather Summary for the Past Weeks

 TemperatureHumidityPressure
High82 °F (Apr 9, 12:00 pm)100% (Apr 15, 9:00 pm)30.18 "Hg (Apr 15, 9:00 pm)
Low36 °F (Apr 15, 9:00 pm)39% (Apr 22, 1:00 pm)29.74 "Hg (Apr 21, 1:00 pm)
Average72 °F77%30.03 "Hg
* Reported Apr 8 3:00 pm — Apr 23 3:00 pm, Florianópolis, Weather by CustomWeather, © 2017

Note: Actual official high and low records may vary slightly from our data, if they occured in-between our weather recording intervals... More about our weather records

Advertising

Florianópolis Weather History for the Previous 24 Hours

Scroll right to see more
 ConditionsComfort  
Time TempWeatherWind HumidityBarometerVisibility
3:00 pm
Sun, Apr 23
75 °FPassing clouds.9 mph47%30.09 "HgN/A
2:00 pm75 °FPassing clouds.5 mph47%30.09 "HgN/A
1:00 pm77 °FPassing clouds.6 mph39%30.12 "HgN/A
12:00 pm75 °FSunny.2 mph47%30.15 "Hg10 mi
11:00 am70 °FSunny.5 mph53%30.18 "Hg10 mi
10:00 am68 °FSunny.5 mph60%30.18 "Hg10 mi
9:00 am64 °FSunny.8 mph68%30.18 "Hg10 mi
8:00 am63 °FSunny.5 mph77%30.15 "Hg10 mi
7:00 am59 °FSunny.No wind82%30.12 "Hg10 mi
6:00 am61 °FClear.5 mph72%30.12 "Hg10 mi
5:00 am61 °FClear.6 mph72%30.12 "Hg10 mi
4:00 am63 °FClear.No wind73%30.12 "Hg10 mi
3:00 am63 °FClear.No wind77%30.12 "Hg10 mi
2:00 am63 °FClear.6 mph77%30.12 "Hg10 mi
1:00 am64 °FClear.No wind73%30.12 "Hg10 mi
12:00 am64 °FClear.6 mph68%30.12 "Hg10 mi
11:00 pm
Sat, Apr 22
66 °FClear.7 mph60%30.15 "Hg10 mi
10:00 pm68 °FClear.7 mph56%30.12 "Hg10 mi
9:00 pm68 °FClear.8 mph60%30.12 "Hg10 mi
8:00 pm68 °FClear.7 mph64%30.12 "Hg10 mi
7:00 pm70 °FClear.10 mph57%30.09 "Hg10 mi
6:00 pm70 °FClear.13 mph43%30.07 "Hg10 mi
5:00 pm72 °FSunny.14 mph47%30.07 "Hg10 mi
4:00 pm73 °FSunny.7 mph44%30.04 "Hg10 mi
Weather by CustomWeather, © 2017

See weather overviewHow to use our weather pages